Tracking 19969 objects as of 13-Nov-2019
Live streaming from Space Station
objects crossing your sky now
Track the group of recently launched Starlink satellites

NOAA 16 DEB

Track NOAA 16 DEB now!
10-day predictions


NORAD ID: 41530
Int'l Code: 2000-055NE
Perigee: 721.8 km
Apogee: 858.9 km
Inclination: 98.8 °
Period: 100.5 minutes
Semi major axis: 7161 km
RCS: Unknown
Launch date: September 21, 2000
Source: United States (US)
Launch site: AIR FORCE WESTERN TEST RANGE (AFWTR)

Note: This is SATELLITE DEBRIS
aabbcc
Your satellite tracking list
Your tracking list is empty




NASA's NSSDC Master Catalog

Two Line Element Set (TLE):
1 41530U 00055NE  19317.11867605  .00001400  00000-0  50696-3 0  9992
2 41530  98.7593  56.0028 0095749 231.0580 128.2041 14.32547837185893
Source of the keplerian elements: AFSPC